MAY203 LIPE-LEPA

Flight info

Callsign MAY203
Flight time N/A
Altitude 29000
Route LUPOS DCT TALEP DCT BALEN UT250 RIXOT
Aircraft A320/M-SDE3FGHIRWY/LB1

Departure

Time 2026-04-30 22:09
Airport Bologna Guglielmo Marconi Airport (LIPE)

Arrival

Time N/A
Airport Palma de Mallorca Airport (LEPA)
Time Latitude Longitude Altitude Speed Heading
2026-04-30 22:01 44.52932 11.29659 132 ft 0 kts
2026-04-30 22:04 44.52934 11.29659 132 ft 0 kts
2026-04-30 22:04 44.52945 11.29662 132 ft 1 kts 15°
2026-04-30 22:05 44.52957 11.29670 131 ft 2 kts 30°
2026-04-30 22:05 44.52971 11.29689 132 ft 3 kts 54°
2026-04-30 22:05 44.52980 11.29724 132 ft 4 kts 84°
2026-04-30 22:05 44.52985 11.29771 131 ft 5 kts 65°
2026-04-30 22:06 44.52996 11.29830 132 ft 7 kts 91°
2026-04-30 22:06 44.52981 11.29879 131 ft 0 kts 118°
2026-04-30 22:07 44.52978 11.29886 131 ft 2 kts 118°
2026-04-30 22:07 44.52975 11.29916 132 ft 7 kts 94°
2026-04-30 22:07 44.52976 11.30045 131 ft 18 kts 87°
2026-04-30 22:07 44.52998 11.30221 132 ft 17 kts 43°
2026-04-30 22:08 44.53084 11.30124 132 ft 25 kts 296°
2026-04-30 22:08 44.53278 11.29590 132 ft 97 kts 296°
2026-04-30 22:08 44.53682 11.28471 132 ft 156 kts 296°
2026-04-30 22:08 44.54201 11.27031 519 ft 170 kts 297°
2026-04-30 22:09 44.54736 11.25535 1162 ft 176 kts 296°
2026-04-30 22:09 44.55274 11.24021 2000 ft 176 kts 296°
2026-04-30 22:09 44.55708 11.22807 2398 ft 186 kts 296°
2026-04-30 22:09 44.55748 11.22696 2429 ft 188 kts 296°
2026-04-30 22:10 44.56273 11.21233 2829 ft 202 kts 296°
2026-04-30 22:10 44.56742 11.19928 3166 ft 215 kts 296°
2026-04-30 22:11 44.57715 11.17229 3767 ft 242 kts 297°
2026-04-30 22:11 44.58471 11.15125 4558 ft 246 kts 296°
2026-04-30 22:11 44.59243 11.12970 5426 ft 248 kts 296°
2026-04-30 22:12 44.60017 11.10803 6259 ft 251 kts 296°
2026-04-30 22:12 44.60797 11.08616 7101 ft 254 kts 296°
2026-04-30 22:12 44.61591 11.06393 7931 ft 257 kts 296°
2026-04-30 22:12 44.62398 11.04128 8747 ft 260 kts 295°
2026-04-30 22:13 44.62877 11.01687 9501 ft 264 kts 269°
2026-04-30 22:13 44.62442 10.99198 10265 ft 266 kts 240°
2026-04-30 22:13 44.61724 10.97575 10850 ft 267 kts 236°
2026-04-30 22:13 44.61333 10.96746 11135 ft 269 kts 236°
2026-04-30 22:14 44.60289 10.94563 11857 ft 273 kts 236°
2026-04-30 22:14 44.59400 10.92714 12467 ft 275 kts 236°
2026-04-30 22:14 44.58320 10.90488 13167 ft 280 kts 235°
2026-04-30 22:14 44.57180 10.88185 13574 ft 295 kts 235°
2026-04-30 22:15 44.55962 10.85732 13903 ft 313 kts 235°
2026-04-30 22:15 44.54676 10.83141 14219 ft 331 kts 235°
2026-04-30 22:15 44.53349 10.80463 14678 ft 342 kts 235°
2026-04-30 22:15 44.51977 10.77693 15373 ft 345 kts 235°
2026-04-30 22:16 44.50581 10.74875 16077 ft 348 kts 235°
2026-04-30 22:16 44.49202 10.72093 16732 ft 352 kts 235°
2026-04-30 22:17 44.44937 10.63497 18631 ft 362 kts 235°
2026-04-30 22:17 44.43480 10.60565 19239 ft 365 kts 235°
2026-04-30 22:17 44.40539 10.54659 20406 ft 372 kts 235°
2026-04-30 22:18 44.39054 10.51679 20967 ft 375 kts 235°
2026-04-30 22:18 44.36058 10.45679 22048 ft 381 kts 235°
2026-04-30 22:19 44.32993 10.39554 23084 ft 387 kts 235°
2026-04-30 22:19 44.31440 10.36455 23583 ft 390 kts 235°
2026-04-30 22:19 44.28305 10.30193 24544 ft 396 kts 234°
2026-04-30 22:20 44.26728 10.27045 25001 ft 399 kts 234°
2026-04-30 22:20 44.23525 10.20671 25881 ft 405 kts 234°
2026-04-30 22:20 44.21905 10.17455 26303 ft 407 kts 234°
2026-04-30 22:21 44.20580 10.14824 26654 ft 409 kts 234°
2026-04-30 22:21 44.19182 10.12117 27111 ft 408 kts 239°
2026-04-30 22:21 44.17557 10.08922 27636 ft 406 kts 240°
2026-04-30 22:21 44.15922 10.05672 28049 ft 408 kts 240°
2026-04-30 22:22 44.14288 10.02426 28427 ft 410 kts 240°
2026-04-30 22:22 44.12647 9.99175 28809 ft 412 kts 240°
2026-04-30 22:22 44.10994 9.95914 29291 ft 411 kts 240°
2026-04-30 22:22 44.09346 9.92674 29820 ft 409 kts 240°
2026-04-30 22:23 44.07691 9.89424 30315 ft 407 kts 240°
2026-04-30 22:23 44.06361 9.86814 30690 ft 406 kts 240°
2026-04-30 22:23 44.05637 9.85393 30891 ft 406 kts 240°
2026-04-30 22:23 44.04007 9.82199 31324 ft 405 kts 240°
2026-04-30 22:24 44.02374 9.79001 31734 ft 404 kts 241°
2026-04-30 22:24 44.00731 9.75789 32092 ft 405 kts 241°
2026-04-30 22:24 43.99102 9.72605 32397 ft 407 kts 241°
2026-04-30 22:24 43.97463 9.69404 32687 ft 408 kts 241°
2026-04-30 22:25 43.95807 9.66178 32999 ft 409 kts 241°
2026-04-30 22:25 43.94155 9.62963 33217 ft 411 kts 241°
2026-04-30 22:25 43.90832 9.56503 33240 ft 412 kts 241°
2026-04-30 22:26 43.85815 9.46847 33243 ft 412 kts 241°
2026-04-30 22:27 43.82449 9.40362 33247 ft 425 kts 241°
2026-04-30 22:27 43.77153 9.30147 33249 ft 445 kts 240°
2026-04-30 22:28 43.71691 9.19646 33246 ft 453 kts 240°
2026-04-30 22:29 43.64336 9.05588 33246 ft 451 kts 239°
2026-04-30 22:31 43.51588 8.81363 33245 ft 444 kts 239°
2026-04-30 22:32 43.41492 8.65256 33223 ft 452 kts 229°
2026-04-30 22:33 43.29968 8.50685 33176 ft 452 kts 229°
2026-04-30 22:35 43.18399 8.36128 33167 ft 452 kts 229°
2026-04-30 22:36 43.06848 8.21628 33166 ft 453 kts 228°
2026-04-30 22:37 42.97506 8.09920 33104 ft 463 kts 222°
2026-04-30 22:38 42.87935 7.98129 33023 ft 464 kts 222°
2026-04-30 22:39 42.80774 7.89343 33012 ft 464 kts 222°
2026-04-30 22:40 42.66444 7.71747 33009 ft 464 kts 222°
2026-04-30 22:41 42.54460 7.57106 33009 ft 464 kts 222°
2026-04-30 22:43 42.40104 7.39667 33010 ft 464 kts 222°
2026-04-30 22:44 42.30506 7.28042 33009 ft 464 kts 221°
2026-04-30 22:45 42.16095 7.10701 33009 ft 464 kts 221°
2026-04-30 22:47 42.01603 6.93395 33009 ft 464 kts 221°
2026-04-30 22:48 41.91951 6.81930 33010 ft 464 kts 221°
2026-04-30 22:49 41.77450 6.64858 33009 ft 464 kts 221°
2026-04-30 22:51 41.62894 6.47772 33009 ft 464 kts 221°
2026-04-30 22:52 41.55618 6.39268 33009 ft 464 kts 221°
2026-04-30 22:53 41.45904 6.27923 33009 ft 464 kts 221°
2026-04-30 22:53 41.38604 6.19431 33009 ft 464 kts 221°
2026-04-30 22:55 41.26448 6.05379 33009 ft 464 kts 221°
2026-04-30 22:56 41.16690 5.94153 33009 ft 464 kts 221°
2026-04-30 22:57 41.05122 5.79415 33009 ft 464 kts 232°
2026-04-30 22:58 40.97312 5.65769 33010 ft 464 kts 233°
2026-04-30 22:59 40.85377 5.45347 33009 ft 464 kts 232°